C/2016 E1 ( PanSTARRS )

Japanese version
Home page
Updated on May 22, 2017

---------------------------------------------------------------------

* Profile

Discovery Date March 3, 2016
Magnitude 21.1 mag
Discoverer Pan-STARRS 1 telescope (Haleakala)

* Pictures

* Orbital Elements

Epoch 2017 June 16.0 TT = JDT 2457920.5
T 2017 June 1.40190 TT                                  MPCW
q   8.1767960            (2000.0)            P               Q
z  -0.0003771      Peri.   47.30765     -0.79986657     +0.08021364
 +/-0.0000020      Node   233.03578     -0.44395396     +0.58781943
e   1.0030835      Incl.  131.89139     +0.40387913     +0.80500564
From 52 observations 2016 Mar. 3-2017 Feb. 22, mean residual 0".3.

* Magnitudes Graph

        m1 = 6.0 + 5 log d + 10.0 log r

---------------------------------------------------------------------

The orbital elements are published on M.P.E.C. 2017-E59.
The magnitudes graphs are made with Comet for Windows.

---------------------------------------------------------------------

Copyright(C) Seiichi Yoshida (comet@aerith.net). All rights reserved.